Regional Weather Roundup
Issued by NWS

Home | Current Version | Previous Version | Text Only | Print | Product List | Glossary On
Versions: 1 2 3 4 5 6 7 8 9 10 11 12 13 14 15 16 17 18 19 20 21 22 23 24 25 26 27 28 29 30 31 32 33 34 35 36 37 38 39 40 41 42 43 44 45 46 47 48 49 50
000
ASUS43 KFSD 010410
RWRSD

WEATHER ROUNDUP FOR SOUTH DAKOTA
NATIONAL WEATHER SERVICE SIOUX FALLS SD
1000 PM CST SAT JAN 31 2015

NOTE: "FAIR" INDICATES FEW OR NO CLOUDS BELOW 12,000 FEET WITH NO
SIGNIFICANT WEATHER AND/OR OBSTRUCTIONS TO VISIBILITY.


SDZ001>005-009-010-012>017-010500-
NORTHWEST AND NORTH CENTRAL SOUTH DAKOTA

CITY           SKY/WX    TMP DP  RH WIND       PRES   REMARKS
BUFFALO          N/A      7   3  84 NE20      30.12R WCI -13
FAITH            N/A      9   4  80 NE21G29   30.18R WCI -11
MOBRIDGE       CLOUDY     9  -3  58 N17G24    30.26R WCI  -9
$$

SDZ012>016-024>037-041>051-057-063-072>074-010500-
SOUTHWEST AND SOUTH CENTRAL SOUTH DAKOTA

CITY           SKY/WX    TMP DP  RH WIND       PRES   REMARKS
RAPID CTY ARPT LGT SNOW  16  13  88 NE13      30.10R FOG     WCI   2
PIERRE         CLOUDY    12   2  64 NE16G23   30.19R WCI  -5
CUSTER         CLOUDY    17  14  88 E3        29.91S FOG
ELLSWORTH AFB  LGT SNOW  14  12  92 NE10      30.11  FOG     WCI   1
PHILIP         CLOUDY    14   7  73 NE10      30.17R WCI   1
PINE RIDGE     LGT SNOW  18  15  88 N9        30.05R FOG     WCI   7
WINNER         LGT SNOW  17  13  84 N18       30.09R VSB 1   WCI   1
$$

SDZ004>011-016>023-039-040-010500-
NORTHEAST SOUTH DAKOTA

CITY           SKY/WX    TMP DP  RH WIND       PRES   REMARKS
ABERDEEN       CLOUDY     6  -4  63 NE23G33   30.28R WCI -15
WATERTOWN      CLOUDY    11   2  67 NE17G28   30.13R WCI  -6
SISSETON         N/A      8  -1  66 N21G26    30.28R WCI -12
$$

SDZ017-020-022-023-036>040-048>070-010500-
SOUTHEAST SOUTH DAKOTA

CITY           SKY/WX    TMP DP  RH WIND       PRES   REMARKS
SIOUX FALLS    LGT SNOW  24  21  88 NE20      30.03S VSB 3/4 WCI  10
HURON          CLOUDY    16   5  62 N15G23    30.16S WCI   1
CHAMBERLAIN    LGT SNOW  13  10  87 NE10      30.11R WCI   0
MITCHELL       LGT SNOW  20  17  88 N17       30.11R VSB 3/4 WCI   5
YANKTON        CLOUDY    27  23  86 NE17G23   30.01R WCI  14
$$

ABBREVIATIONS USED IN REMARKS
   TC - TEMPERATURE IN CELSIUS
  WCI - WIND CHILL INDEX
   HX - HEAT INDEX
  VSB - VISIBILITY



USA.gov is the U.S. government's official web portal to all federal, state and local government web resources and services.